RH
42 46 49 49 47 46 45 46 46 47 44 42 42 42 41 41 41 41 39 37 37 35 33 31 30 32 35 36 39 46 57 63 61 58 63 70 74 81 87 85 85 92 95 97 98 96 95 94 93 94 94 92 88 85 83 80 77 74 72 72 71 69 69 67 64 60 56 54 52 49 45 37 29 26 25 22 21 25 30 33 34 37 42 50 59
47 51 53 52 51 50 50 50 50 48 43 40 41 42 41 42 42 42 40 38 37 35 33 32 33 35 36 37 39 45 57 66 64 63 69 75 79 85 89 87 89 93 95 97 98 96 96 94 93 95 95 93 91 89 88 85 80 77 78 79 76 72 72 70 67 64 59 56 54 51 46 38 30 27 25 24 22 22 26 31 35 37 39 46 56
52 58 59 57 55 54 54 52 49 45 44 45 46 45 44 44 44 44 42 41 39 37 36 36 37 37 36 38 41 46 59 69 67 67 74 79 83 88 89 88 91 95 96 96 97 97 96 94 95 96 96 95 92 91 91 88 83 82 83 83 80 77 76 72 69 66 62 59 56 52 45 38 32 28 26 25 24 22 24 29 34 37 39 44 52
61 65 63 59 57 56 53 49 46 45 48 51 51 49 48 48 47 46 44 44 42 41 40 39 39 38 37 41 45 49 61 71 71 72 78 82 87 93 91 88 90 95 97 96 96 97 95 95 95 96 96 95 93 92 93 90 87 87 87 86 85 83 80 75 71 69 65 61 58 52 45 38 32 29 27 26 25 24 24 26 31 35 39 43 49
66 67 64 59 55 51 48 47 49 51 52 53 53 53 51 49 48 47 45 45 44 42 41 40 40 39 39 43 48 51 62 73 74 75 82 85 89 95 93 90 92 95 95 96 97 97 96 95 95 96 96 95 93 93 93 93 92 91 91 92 90 88 84 78 74 72 67 63 60 54 45 39 34 30 29 28 27 25 23 24 28 33 37 41 45
62 64 61 55 49 47 49 53 56 56 55 55 54 53 52 50 49 48 47 47 45 43 42 41 40 41 40 45 51 53 62 75 79 79 84 88 91 95 94 93 96 96 95 96 96 96 96 95 96 96 96 94 93 93 94 95 94 94 95 96 93 91 87 82 78 74 69 66 63 55 46 39 35 32 31 31 30 27 25 23 26 32 36 39 42
56 55 52 50 51 54 58 59 57 56 55 55 54 53 52 50 48 47 46 44 43 42 42 42 41 41 41 47 55 56 64 79 83 83 87 90 93 96 94 95 99 99 96 97 97 97 96 96 97 97 96 95 95 95 95 96 95 96 97 97 95 93 90 86 83 77 71 69 64 55 46 40 36 34 33 32 31 30 29 27 27 30 35 38 41
48 46 49 55 60 62 62 58 56 54 53 51 50 49 48 47 46 45 43 42 40 39 41 42 43 42 42 50 60 60 66 82 89 87 89 92 95 97 94 94 98 99 98 97 97 97 97 97 98 98 96 96 95 95 96 97 98 98 98 98 97 95 92 89 85 79 74 70 65 56 47 40 36 35 35 33 31 31 32 32 30 30 32 36 39
44 50 59 65 66 63 59 55 51 49 48 47 47 48 48 48 48 47 45 43 42 41 42 43 43 43 44 52 62 61 66 86 94 91 91 93 95 98 96 94 96 97 97 98 98 99 99 99 100 99 97 97 95 95 96 97 99 100 100 99 97 95 94 90 86 81 76 71 67 59 49 41 37 36 37 36 33 33 33 33 32 30 31 34 38
56 64 67 67 63 57 52 49 48 47 48 49 50 51 52 53 52 50 48 46 46 45 45 45 44 44 46 55 63 61 66 88 99 94 93 93 94 99 98 95 94 93 95 99 100 100 100 99 99 99 99 98 96 95 97 98 99 100 100 99 97 96 95 90 86 82 76 72 70 62 51 42 38 38 39 37 35 36 34 32 32 32 32 34 37
67 69 65 61 56 52 50 49 48 49 50 52 54 55 56 56 54 53 50 49 49 48 47 47 45 45 49 57 63 61 65 86 100 98 94 93 93 99 100 96 94 93 96 100 100 100 100 99 98 99 100 98 96 96 97 99 99 99 99 99 97 96 94 91 87 82 77 75 73 64 52 44 41 41 42 40 37 37 36 34 33 35 36 37 38
66 63 61 57 54 51 50 50 49 51 53 55 57 58 57 56 54 53 52 51 51 49 48 47 45 46 51 58 63 61 64 84 100 100 96 93 92 97 100 98 97 97 99 101 100 100 101 99 99 100 99 96 96 97 98 100 100 99 99 100 98 96 94 90 86 82 80 80 75 65 54 48 44 44 46 45 41 38 37 35 34 36 39 40 40
60 58 57 55 52 51 50 51 52 54 55 57 58 58 57 56 55 54 54 53 52 50 48 47 45 46 52 60 64 61 63 83 99 101 97 95 92 95 99 99 100 100 101 101 100 99 101 100 100 100 99 94 92 94 97 99 100 98 99 100 99 97 93 89 85 82 81 81 77 66 56 51 48 47 49 50 48 43 38 37 36 36 38 41 41
55 55 53 52 52 51 52 54 56 57 57 58 58 57 56 56 55 55 54 53 52 50 47 46 45 47 53 61 64 61 63 81 97 100 99 97 93 94 97 99 99 99 100 101 101 100 100 100 99 100 100 95 89 90 94 97 98 99 100 100 98 96 92 88 85 82 83 84 78 67 58 54 52 51 52 53 51 46 41 37 36 36 38 40 41
52 52 52 52 53 53 55 57 57 57 57 57 58 57 57 56 55 54 54 52 50 48 46 45 44 48 55 62 64 61 63 79 95 100 100 99 95 93 95 98 99 99 99 100 100 101 101 101 100 100 99 96 91 89 92 95 97 98 99 98 97 95 90 87 86 86 88 88 79 66 61 59 56 55 56 55 53 49 44 39 36 35 38 40 40
53 54 53 53 54 56 57 57 57 56 56 57 58 58 57 56 55 54 52 50 47 46 45 45 45 49 56 63 63 61 64 78 94 99 100 100 98 94 94 97 99 100 100 100 100 100 101 101 101 100 99 97 94 93 95 97 97 98 97 95 94 93 89 87 88 90 91 88 78 68 65 63 61 60 59 56 53 50 47 42 37 35 36 37 38
54 55 54 54 55 56 57 57 56 56 56 58 58 58 57 56 54 53 51 49 47 46 45 45 46 51 58 62 63 61 65 78 93 100 100 100 98 96 95 97 100 101 101 101 100 99 100 101 102 101 99 97 95 94 97 99 99 99 97 92 92 91 89 88 90 91 90 86 78 72 67 65 65 64 62 58 55 53 51 46 42 40 38 36 35
55 55 54 55 55 56 56 56 56 56 56 58 58 57 56 54 52 51 49 48 46 45 45 46 49 54 59 63 62 60 65 79 93 100 100 100 99 96 95 97 100 101 101 101 100 99 99 100 101 102 100 96 94 95 98 100 101 99 96 93 91 90 89 90 91 92 90 85 79 75 72 69 69 68 67 64 61 58 55 50 46 46 44 42 40
55 55 55 56 56 56 56 56 56 56 56 57 57 56 54 52 51 49 47 46 45 45 45 47 51 56 60 62 61 60 65 79 93 100 100 100 99 97 97 98 101 101 101 101 101 99 98 98 100 102 99 95 95 98 100 101 100 98 96 93 90 89 89 91 92 91 88 82 79 78 77 75 73 71 71 68 63 60 57 53 49 48 47 46 45
56 56 56 55 55 56 56 57 57 56 57 57 56 54 52 50 49 47 45 45 44 45 46 48 54 59 62 62 60 60 66 79 93 99 100 100 100 99 99 100 102 102 101 100 100 100 99 98 100 102 100 96 97 100 100 101 100 97 95 92 89 89 90 92 92 90 86 81 80 80 79 78 76 73 72 70 66 62 59 56 52 50 50 48 46
56 56 56 56 56 56 56 56 56 56 56 56 54 52 50 49 48 46 44 44 45 45 47 52 57 61 62 61 60 60 67 80 93 100 100 100 100 100 100 101 102 102 101 100 100 100 100 100 99 99 98 97 98 100 101 100 98 95 92 90 89 90 91 91 91 89 84 82 82 81 80 79 77 74 73 71 67 62 59 56 53 52 51 49 46
57 56 56 56 56 57 56 56 55 54 54 54 53 52 50 48 47 46 45 46 47 48 51 56 60 62 61 61 60 61 68 81 93 100 100 100 100 100 100 100 101 101 101 100 100 100 100 101 99 96 96 96 98 100 101 99 96 93 91 89 90 92 91 90 88 84 81 81 82 81 79 78 76 74 73 70 67 63 59 56 54 53 52 51 48
57 57 56 56 56 56 55 54 54 53 53 53 52 51 49 47 47 47 47 48 50 52 56 60 62 62 60 60 60 64 72 83 94 100 100 99 100 100 100 100 100 100 100 100 100 99 99 100 98 96 96 98 100 101 100 98 94 91 91 91 92 93 93 90 84 79 78 80 81 80 79 78 77 75 73 70 67 64 60 58 58 58 58 56 53
57 56 55 54 54 53 52 51 51 51 51 51 50 49 47 46 46 48 49 51 53 56 59 62 62 62 60 59 60 67 76 84 93 99 100 100 100 101 101 100 100 100 100 100 99 98 98 98 98 97 98 100 101 100 99 95 92 91 93 94 94 95 94 88 80 76 76 79 80 80 79 78 77 77 76 72 67 64 62 62 62 63 63 61 58
53 53 52 52 52 50 49 49 49 50 50 50 49 48 47 47 48 50 52 54 57 60 62 63 62 62 61 60 62 70 78 84 92 99 101 100 100 101 101 101 100 100 100 100 99 98 98 98 98 99 100 101 100 99 97 93 90 91 93 95 97 97 91 82 76 75 77 78 78 78 76 75 75 76 75 72 69 66 65 65 65 65 65 63 61
48 49 49 50 50 50 49 49 50 52 51 51 51 51 51 50 51 53 55 58 60 62 64 63 62 62 61 62 66 74 80 84 92 99 101 100 101 100 100 101 100 100 101 100 98 98 98 98 99 100 100 100 99 98 96 93 91 91 92 93 94 92 86 79 77 77 77 77 77 77 77 76 76 76 76 74 72 70 68 68 69 68 65 64 63
45 45 47 48 49 49 49 50 52 53 52 51 53 55 55 55 56 57 58 60 62 64 64 63 62 62 62 65 72 79 81 85 93 100 101 100 101 100 100 101 100 100 101 100 99 98 97 97 99 100 100 100 99 98 95 94 93 92 91 91 90 87 82 80 79 78 77 78 78 78 78 77 78 78 78 77 76 75 73 71 71 70 67 65 64
43 43 45 46 47 48 49 50 52 52 51 52 57 59 59 58 59 60 61 62 64 64 64 63 62 62 65 71 77 82 81 84 93 100 100 100 100 100 100 101 100 100 100 101 100 100 99 98 100 101 100 99 98 97 96 96 95 94 93 93 90 86 81 78 77 77 78 79 79 78 78 77 78 79 80 80 80 79 78 75 71 69 68 67 67
41 42 43 44 45 46 48 51 52 51 51 52 57 62 64 63 62 61 62 64 65 64 63 63 64 67 71 76 80 83 81 83 92 99 100 100 100 100 99 99 100 100 99 99 99 100 100 99 100 100 99 99 97 97 97 97 96 95 94 93 89 83 78 76 76 77 78 78 79 80 79 79 79 80 81 83 83 82 81 80 76 71 68 68 68
41 41 42 43 44 45 47 49 50 51 52 53 55 58 63 66 66 64 63 64 65 64 64 65 68 72 76 78 80 82 82 83 91 99 100 99 99 99 98 98 99 99 98 98 99 100 99 99 98 98 98 98 97 97 97 97 98 98 97 94 89 82 78 78 79 78 78 78 79 80 80 80 80 81 82 84 84 82 81 82 81 77 72 70 68
42 43 43 44 45 47 48 48 49 49 52 55 56 58 59 61 63 63 62 63 66 67 67 70 75 79 81 80 80 81 81 82 89 97 100 99 98 99 99 99 100 99 98 98 100 101 100 100 100 100 99 98 97 96 95 96 98 99 97 92 87 82 79 79 80 80 80 80 80 80 80 80 80 81 83 85 84 83 82 82 83 81 79 76 72
46 46 46 47 48 49 50 50 50 51 52 55 58 60 60 59 59 60 59 60 64 71 75 77 80 82 82 81 81 81 80 81 87 95 99 98 97 97 99 99 100 99 98 98 99 100 100 101 101 100 98 97 97 95 94 93 94 95 93 88 83 79 78 78 79 79 80 80 80 79 80 79 79 81 83 85 85 85 84 84 84 83 83 81 76
50 50 50 50 50 51 52 53 54 54 55 57 60 62 63 62 61 61 60 60 64 73 79 82 81 81 81 81 81 81 81 83 88 96 99 98 97 98 98 99 100 100 99 99 99 99 99 100 101 100 97 96 96 94 93 92 92 93 92 88 84 81 79 79 79 79 80 80 79 79 79 80 81 83 85 86 87 87 87 86 85 84 83 83 80
55 53 53 54 54 54 56 57 57 58 59 62 64 65 65 65 64 63 64 67 70 75 79 80 80 80 80 80 81 81 83 86 92 98 100 99 99 100 100 100 100 100 100 100 100 100 100 101 101 101 99 97 97 95 93 92 92 94 94 92 88 84 82 81 80 79 79 79 78 78 79 80 81 83 85 86 87 87 86 86 84 83 83 83 81
57 56 56 57 58 58 61 62 62 62 63 65 68 69 68 67 66 65 67 71 76 79 80 79 79 79 79 80 81 82 85 90 96 99 100 100 100 100 100 100 100 99 98 99 99 99 101 101 101 101 100 99 98 97 94 93 94 95 95 93 89 85 82 80 79 78 78 78 78 78 79 80 80 82 84 85 86 85 85 84 84 83 84 83 83
59 57 58 60 62 63 65 67 66 66 67 69 71 72 71 69 67 67 71 75 79 82 82 80 79 79 79 80 81 82 86 92 98 100 100 100 100 100 100 99 98 97 96 96 96 96 98 99 100 100 100 100 100 99 99 98 97 96 95 92 89 85 82 80 79 79 80 80 80 80 81 82 83 84 85 86 87 87 87 86 85 85 85 84 83
61 60 61 63 65 67 68 69 69 69 71 73 73 74 73 71 69 69 73 79 82 83 83 82 80 79 79 80 82 84 88 94 100 101 101 100 100 100 100 99 98 97 96 95 95 97 98 98 99 98 99 99 99 99 99 98 98 98 96 93 89 86 83 81 80 80 80 81 81 81 82 83 84 85 86 88 88 88 88 88 86 86 85 84 83
63 64 66 67 69 70 69 69 69 69 71 72 74 74 74 73 71 71 74 80 84 84 83 83 82 81 81 83 86 89 92 96 99 100 100 100 99 99 98 98 98 97 97 96 96 97 99 99 99 98 97 97 98 99 99 99 99 99 98 94 90 86 84 82 81 80 80 80 81 82 83 84 85 85 86 88 88 88 88 88 87 86 86 85 84
63 66 69 71 72 73 72 70 69 69 69 71 74 75 75 74 73 73 76 82 85 85 84 83 82 82 83 85 89 94 96 98 99 99 99 99 99 98 98 99 99 98 98 98 98 99 100 101 100 99 98 97 97 98 99 100 100 100 98 95 91 87 83 82 81 80 80 80 80 82 83 84 85 86 87 88 89 88 88 88 87 87 86 85 85
63 66 70 72 74 75 75 73 71 70 70 72 75 77 78 77 76 75 77 82 86 85 84 84 83 83 84 87 90 95 98 99 100 100 100 100 100 100 100 100 100 100 100 100 100 100 101 102 101 100 99 97 96 97 98 99 99 100 99 96 92 88 85 83 82 81 81 81 81 81 81 82 83 84 86 88 89 89 88 89 89 89 88 87 86
65 67 70 73 75 77 77 77 75 74 73 75 78 80 80 80 79 77 77 81 85 85 84 84 84 84 86 88 90 94 98 100 100 100 100 100 100 100 100 100 100 100 100 100 100 100 101 102 102 101 100 99 97 97 97 98 98 99 99 97 93 89 86 84 83 82 82 82 82 82 81 82 82 83 84 85 86 88 89 89 89 89 89 89 89
68 69 70 72 76 78 79 79 79 78 76 77 80 82 83 83 82 80 78 80 84 86 85 84 84 84 86 89 92 94 97 100 100 100 100 100 100 100 100 100 100 100 101 100 100 100 100 101 101 101 100 99 98 97 98 98 98 99 99 97 95 91 88 85 83 82 82 82 82 82 82 83 83 83 84 84 85 86 88 89 89 89 90 90 91
71 71 71 72 75 79 81 81 82 81 79 79 80 83 85 85 84 83 80 79 82 85 85 84 84 85 86 90 93 95 97 99 100 100 100 101 100 100 99 99 100 100 101 101 101 100 100 101 101 101 101 99 99 98 98 98 99 100 99 98 96 93 89 85 83 83 83 82 82 82 83 83 83 84 84 85 86 87 89 90 90 90 91 91 91
73 72 72 74 75 78 81 83 84 84 84 83 83 84 86 87 86 85 82 80 81 84 86 85 84 84 86 89 94 97 98 99 100 100 100 101 101 101 100 100 100 100 100 100 101 100 100 100 101 101 101 100 99 99 99 99 99 100 101 100 98 94 90 86 84 83 83 83 82 82 82 82 82 83 83 85 86 88 90 92 92 93 92 92 92
73 73 73 74 75 76 79 82 85 86 87 86 85 85 87 88 88 87 85 82 81 83 85 86 85 85 85 88 92 97 99 99 100 100 100 100 101 101 101 101 100 100 100 100 100 100 100 100 100 101 101 101 100 100 100 99 99 100 101 100 99 97 93 89 86 84 84 83 83 82 82 82 82 82 83 84 85 87 90 92 93 94 94 93 93
69 72 74 75 75 76 77 79 83 86 88 89 89 87 87 88 89 89 88 85 83 82 84 86 87 86 85 86 90 95 99 100 100 100 100 100 100 101 101 100 100 100 100 100 100 100 100 100 100 101 101 101 101 100 100 100 100 100 100 100 100 99 96 93 89 86 85 84 83 83 82 82 82 82 82 83 84 86 88 90 92 93 94 94 93
66 69 72 74 76 78 78 79 81 85 88 90 91 91 90 90 90 90 90 89 86 83 83 85 87 87 85 85 88 92 97 100 101 100 100 100 100 100 100 100 100 100 100 100 100 100 100 101 100 101 101 101 101 100 100 100 99 99 99 100 100 100 98 96 93 89 87 86 84 84 83 83 83 82 82 83 84 85 86 88 90 92 93 93 93
67 69 71 72 73 76 80 81 82 84 87 90 93 93 93 93 92 92 92 92 90 87 84 85 87 88 87 86 86 89 94 99 101 101 100 100 100 100 100 100 100 100 100 100 100 100 100 101 101 101 102 102 101 100 100 100 99 99 99 99 100 100 100 98 96 93 90 88 87 85 84 84 83 83 83 83 83 84 85 86 87 89 91 93 93
68 70 72 73 72 73 76 80 83 85 86 89 91 93 94 95 95 94 94 94 93 90 87 86 87 89 90 88 87 87 90 95 99 101 101 100 100 100 100 100 100 100 100 100 100 100 100 100 101 101 102 101 101 100 100 99 99 98 98 98 99 100 100 100 99 97 94 91 89 87 86 85 84 84 84 83 83 84 84 85 86 87 89 91 92
68 69 71 74 75 74 73 75 79 84 87 89 91 92 93 95 95 96 96 97 96 94 91 88 87 88 91 91 90 87 88 91 96 100 101 101 101 101 101 100 100 101 100 100 100 101 101 101 101 101 101 101 101 100 100 100 99 98 98 97 97 98 99 100 100 99 98 95 93 90 87 86 84 84 84 83 83 83 84 84 85 86 87 88 89
67 68 69 72 75 77 76 74 75 78 83 88 92 93 93 94 95 95 96 97 97 97 96 93 89 88 90 93 93 90 88 89 92 97 100 101 100 101 101 101 101 101 100 100 99 99 100 101 101 100 101 102 102 101 100 100 99 98 97 96 96 96 97 97 98 99 99 99 97 94 91 88 86 85 84 83 83 83 83 83 84 85 86 87 87